SCP
0 0 -0 -0 -0 -0 0 0 0 0 0 0 0 0 0 0 0 0 0 0 0 0 -0 -0 -0 -0 -0 -0 -0 -0 -0 -0 -0 0 0 0 0 0 0 -0 0 -0 -0 0 -0 0 0 0 0
0 -0 -0 -0 0 0 0 -0 0 0 0 0 0 0 0 -0 0 0 0 0 0 0 0 0 -0 -0 -0 -0 -0 -0 -0 -0 -0 -0 -0 -0 0 0 0 0 -0 -0 -0 0 0 0 0 0 0
-0 -0 -0 0 0 0 0 0 0 -0 0 0 0 0 0 -0 0 0 0 0 0 0 0 0 -0 -0 -0 -0 -0 -0 -0 -0 -0 -0 -0 -0 -0 -0 0 0 0 -0 0 0 0 0 0 0 0
0 -0 -0 0 0 0 0 0 0 -0 -0 0 0 0 0 0 -0 -0 -0 0 0 0 0 0 -0 -0 -0 -0 -0 -0 -0 -0 -0 -0 -0 -0 -0 -0 -0 0 0 0 0 0 0 0 0 0 0
-0 0 0 0 0 0 0 0 0 0 -0 0 0 0 0 0 -0 0 0 0 0 0 0 0 -0 -0 -0 -0 -0 -0 -0 -0 -0 -0 -0 -0 -0 0 0 0 0 0 0 0 0 0 0 0 0
0 0 0 0 0 0 0 0 0 0 0 0 0 0 0 0 0 0 0 0 0 0 0 0 0 0 0 -0 -0 -0 -0 -0 -0 -0 -0 -0 0 0 0 0 0 0 0 0 0 0 0 0 0
0 0 0 0 0 0 0 0 0 0 0 0 0 0 0 0 0 0 0 0 0 0 0 0 0 0 0 0 0 0 -0 -0 -0 -0 0 0 0 0 0 0 0 0 0 0 0 0 0 0 0
0 0 0 0 0 0 0 0 0 0 0 0 0 0 0 0 0 0 0 0 0 0 0 0 0 0 0 0 0 0 0 0 0 0 0 0 0 0 0 0 0 0 0 0 0 0 0 0 0
0 0 0 0 0 0 0 0 0 0 0 0 0 0 0 0 0 0 0 0 0 0 0 0 0 0 0 0 0 0 0 0 0 0 0 0 0 0 0 0 0 0 0 0 0 0 0 0 0
0 0 0 0 0 0 0 0 0 0 0 0 0 0 0 0 0 0 0 0 0 0 0 0 0 0 0 0 0 0 0 0 0 0 0 0 0 0 0 0 0 0 0 0 0 0 0 0 0
0 0 0 0 0 0 0 0 0 0 0 0 0 0 0 0 0 0 0 0 0 0 0 0 0 0 0 0 0 0 0 0 0 0 0 0 0 0 0 0 0 0 0 0 0 0 0 0 0
0 0 0 0 0 0 0 0 0 0 0 0 0 0 0 0 0 0 0 0 0 0 0 0 0 0 0 0 0 0 0 0 0 0 0 0 0 0 0 0 0 0 0 0 0 0 0 0 0
0 0 0 0 0 0 0 0 0 0 0 0 0 0 0 0 0 0 0 0 0 0 0 0 0 0 0 0 0 0 0 0 0 0 0 0 0 0 0 0 0 0 0 0 0 0 0 0 0
0 0 0 0 0 0 0 0 0 0 0 0 0 0 0 0 0 0 0 0 0 0 0 0 0 0 0 0 0 0 0 0 0 0 0 0 0 0 0 0 0 0 0 0 0 0 0 0 0
0 0 0 0 0 0 0 0 0 0 0 0 0 0 0 0 0 0 0 0 0 0 0 0 0 0 0 0 0 0 0 0 0 0 0 0 0 0 0 0 0 0 0 0 0 0 0 0 0
0 0 0 0 0 0 0 0 0 0 0 0 0 0 0 0 0 0 0 0 0 0 0 0 0 0 0 0 0 0 0 0 0 0 0 0 0 0 0 0 0 0 0 0 0 0 0 0 0
0 0 0 0 0 0 0 0 0 0 0 0 0 0 0 0 0 0 0 0 0 0 0 0 0 0 0 0 0 0 0 0 0 0 0 0 0 0 0 0 0 0 0 0 0 0 0 0 0
0 0 0 0 0 0 0 0 0 0 0 0 0 0 0 0 0 0 0 0 0 0 0 0 0 0 0 0 0 0 0 0 0 0 0 0 0 0 0 0 0 0 0 0 0 0 0 0 0
0 0 0 0 0 0 0 0 0 0 0 0 0 0 0 0 0 0 0 0 0 0 0 0 0 0 0 0 0 0 0 0 0 0 0 0 0 0 0 0 0 0 0 0 0 0 0 0 0
0 0 0 0 0 0 0 0 0 0 0 0 0 0 0 0 0 0 0 0 0 0 0 0 0 0 0 0 0 0 0 0 0 0 0 0 0 0 0 0 0 0 0 0 0 0 0 0 0
0 0 0 0 0 0 0 0 0 0 0 0 0 0 0 0 0 0 0 0 0 0 0 0 0 0 0 0 0 0 0 0 0 0 0 0 0 0 0 0 0 0 0 0 0 0 0 0 0
0 0 0 0 0 0 0 0 0 0 0 0 0 0 0 0 0 0 0 0 0 0 0 0 0 0 0 0 0 0 0 0 0 0 0 0 0 0 0 0 0 0 0 0 0 0 0 0 0
0 0 0 0 0 0 0 0 0 0 0 0 0 0 0 0 0 0 0 0 0 0 0 0 0 0 0 0 0 0 0 -0 -0 0 0 0 0 0 0 0 0 0 0 0 0 0 0 0 0
0 0 0 0 0 0 0 0 0 0 0 0 0 0 0 0 0 0 0 0 0 0 0 0 0 0 0 0 0 0 0 0 0 0 0 0 0 0 0 0 0 0 0 0 0 0 0 0 0
0 0 0 0 0 0 0 0 0 0 0 0 0 0 0 0 0 0 0 0 0 0 0 0 0 0 -0 -0 0 0 -0 0 0 0 0 0 0 0 0 0 0 0 0 0 0 0 0 0 0
0 0 0 0 0 0 0 0 0 0 0 0 0 0 0 0 0 0 0 0 0 0 0 0 0 -0 -0 -0 0 0 0 0 0 0 0 0 0 0 0 0 0 0 0 0 0 0 0 0 0
0 0 0 0 0 0 0 0 0 0 0 0 0 0 0 0 0 0 0 0 0 0 0 -0 -0 0 0 0 0 0 0 0 0 0 0 0 0 0 0 0 0 0 0 0 0 0 0 0 0
0 0 0 0 0 0 0 0 0 0 0 0 0 0 0 0 0 0 0 0 0 0 0 0 0 0 0 0 0 0 0 0 0 0 0 0 0 0 0 0 0 0 0 0 0 0 0 0 0
0 0 0 0 0 0 0 0 0 0 0 0 0 0 0 0 0 0 0 0 0 0 0 0 0 0 0 0 0 0 0 0 0 0 0 0 0 0 0 0 0 -0 -0 -0 -0 -0 -0 -0 -0
0 0 0 0 0 0 0 0 0 0 0 0 0 0 0 0 0 0 0 0 0 0 0 0 0 0 0 0 0 0 0 0 0 0 0 0 0 0 0 0 0 0 0 -0 -0 -0 -0 -0 -0
Wind_Speed_500mb
8 6 6 2 7 10 2 2 2 3 3 1 3 5 4 4 7 5 13 1 5 10 27 35 34 31 28 26 25 24 22 18 13 9 7 7 7 7 6 8 11 14 8 3 5 7 6 7 5
6 5 2 4 9 8 8 7 4 3 2 4 5 4 4 1 1 6 9 5 5 8 21 31 34 31 27 25 24 24 19 17 14 12 11 10 10 10 9 9 12 14 12 5 1 3 3 3 2
6 6 1 9 7 7 7 7 5 5 3 4 3 2 3 2 4 6 7 6 5 2 13 27 32 32 30 27 21 18 20 18 16 16 15 14 14 13 8 7 5 18 17 12 4 2 2 2 4
7 3 9 9 4 3 5 5 4 5 3 5 5 4 3 1 2 4 8 10 6 0 6 19 31 33 32 28 24 22 20 20 22 20 19 16 12 12 14 17 22 27 22 15 8 7 7 8 10
7 5 8 7 4 6 6 7 2 4 4 3 4 4 5 6 3 1 5 10 9 3 6 11 25 33 35 33 28 25 23 23 21 16 20 19 17 17 17 22 28 30 28 15 10 10 11 11 12
6 6 9 3 5 7 6 12 3 2 5 4 3 4 3 13 7 6 3 5 9 5 4 10 16 28 34 36 34 31 28 27 27 20 24 20 20 18 18 15 21 29 21 15 12 11 12 12 13
10 8 7 6 4 5 5 15 6 2 7 4 8 6 4 16 10 9 10 9 6 7 5 8 13 22 31 37 39 37 35 33 31 24 27 25 26 22 19 17 17 18 18 17 12 12 13 12 10
6 10 6 4 3 3 7 7 6 6 4 5 3 3 7 26 27 9 9 10 11 9 8 11 16 21 27 34 39 40 38 37 35 28 29 30 31 28 23 19 19 19 20 17 15 14 13 11 10
4 9 3 7 11 4 4 10 2 13 9 5 6 8 22 22 13 15 12 12 15 17 18 20 21 22 26 32 37 40 40 39 37 36 35 35 36 35 29 24 23 22 21 19 18 17 15 13 14
9 7 13 6 6 3 9 3 14 6 14 8 15 17 22 19 19 15 15 16 18 21 22 24 28 27 26 29 34 38 40 40 40 40 39 37 37 38 36 30 29 27 25 24 23 21 18 18 17
6 8 7 4 12 6 9 13 2 2 9 11 15 29 21 7 8 10 14 19 20 17 19 26 29 31 32 32 32 33 35 38 40 39 38 40 41 40 39 36 33 30 30 28 26 24 22 23 23
1 8 8 5 3 5 6 14 14 10 9 21 18 8 15 12 12 10 9 11 11 13 17 19 26 29 33 34 33 32 32 36 38 37 41 43 40 37 38 39 37 36 34 35 32 28 26 27 28
4 5 7 14 19 21 20 18 15 40 23 9 6 1 9 12 12 12 14 16 19 20 21 23 25 31 32 34 32 28 27 27 32 40 39 43 40 38 39 40 39 38 39 41 34 32 30 29 31
4 8 21 24 23 16 9 6 6 16 11 11 5 5 9 12 15 14 15 18 22 20 19 21 26 30 35 35 33 29 25 22 21 23 36 43 42 40 39 42 37 40 42 42 40 36 33 33 34
5 10 12 11 8 8 11 4 12 3 9 15 12 12 16 19 15 12 18 24 25 26 28 22 16 19 22 33 34 31 26 21 16 12 13 19 27 31 26 36 40 38 41 42 44 40 38 36 38
6 7 7 5 3 2 8 15 8 17 26 16 10 9 8 13 20 23 20 17 19 21 24 28 24 15 5 17 26 21 18 15 12 12 14 19 22 28 30 32 34 36 38 40 42 40 39 35 38
10 6 8 15 6 2 5 13 4 35 24 14 12 11 12 13 15 18 19 20 22 23 23 23 22 16 10 15 18 17 15 13 15 18 17 17 21 21 23 24 27 34 38 37 34 36 38 38 40
12 8 8 11 3 8 6 19 11 33 17 21 19 19 22 24 29 26 24 23 22 25 29 31 32 31 31 26 22 20 11 6 2 6 12 17 18 19 21 20 24 25 26 28 41 33 38 38 40
9 9 9 6 6 5 12 13 8 16 27 24 23 27 32 35 35 36 36 35 34 31 31 35 36 37 27 23 21 19 12 10 6 10 16 17 20 20 20 19 20 21 20 25 22 28 29 27 33
6 6 10 9 3 7 8 13 7 14 9 15 23 29 32 36 40 46 51 54 57 59 62 61 59 50 43 34 30 24 20 15 10 12 11 15 18 18 18 22 27 28 29 33 33 35 31 32 32
9 12 9 12 4 1 10 11 9 6 18 19 20 26 29 35 39 42 48 54 57 61 63 63 62 59 54 51 44 34 27 20 13 7 6 10 11 14 19 24 27 28 28 33 38 42 42 39 37
9 14 10 7 6 7 5 9 7 8 8 11 22 25 28 28 36 39 44 48 51 54 52 52 50 47 44 38 35 29 30 26 26 19 16 12 10 10 11 12 15 17 19 25 30 31 36 45 47
10 9 11 6 7 6 4 2 12 8 7 10 19 25 28 30 36 39 37 39 41 40 37 36 37 37 36 33 29 27 28 30 26 22 18 19 20 18 18 17 15 13 15 17 18 17 19 24 30
17 11 12 9 6 1 10 12 8 8 7 9 24 31 31 32 34 35 35 31 29 28 26 25 28 32 30 27 24 23 23 24 19 20 19 20 22 22 24 25 27 28 28 28 27 27 26 25 25
7 11 3 6 3 10 1 4 15 10 6 17 36 47 38 35 34 31 29 24 21 19 19 20 23 25 24 22 20 21 21 20 21 22 23 21 23 26 29 30 29 30 31 32 32 32 31 32 34
11 12 11 13 7 6 5 11 11 4 8 20 52 54 44 40 33 27 23 18 13 13 12 13 14 17 17 17 17 18 19 23 24 24 25 28 30 31 31 33 34 34 35 36 36 37 37 35 35
8 7 5 12 3 3 8 10 3 3 3 20 45 54 52 45 39 31 22 14 8 5 5 6 7 10 10 11 13 15 18 18 21 22 24 27 29 31 34 36 39 40 42 45 46 47 48 47 45
8 12 7 5 3 10 8 9 10 10 14 11 23 47 51 46 41 33 23 13 8 5 4 1 1 2 4 6 8 11 14 17 21 24 27 31 34 36 40 41 43 45 48 51 54 58 58 61 59
5 5 8 8 7 9 5 10 11 13 20 26 39 57 53 48 44 37 27 19 15 12 10 9 8 6 2 1 6 11 16 21 25 28 32 35 37 38 41 45 50 55 61 67 71 71 73 74 75
4 13 14 9 11 5 2 13 5 6 28 45 51 57 49 46 43 39 34 28 22 20 19 19 17 12 7 8 11 15 19 24 28 33 37 41 42 44 49 54 61 66 71 75 79 81 82 87 89
Wind_Direction_500mb
322 324 320 309 59 67 337 279 259 324 18 93 103 113 152 162 152 204 345 347 18 164 186 185 187 186 189 190 194 198 204 207 212 221 230 229 228 234 244 288 317 332 333 17 67 79 87 98 119
355 6 360 95 84 66 280 264 230 222 86 104 117 83 71 320 329 351 356 344 15 151 187 193 191 194 197 205 208 210 218 216 224 231 232 235 239 243 253 290 312 315 343 288 346 87 93 98 143
24 10 19 93 105 152 190 232 239 319 72 64 96 89 107 40 5 23 21 18 9 130 188 201 200 201 204 212 208 206 210 224 238 247 251 243 236 233 242 249 257 299 329 318 273 278 276 278 275
360 347 57 78 112 228 213 323 258 341 51 43 43 49 318 301 7 42 59 57 34 92 182 201 208 210 213 223 219 223 224 232 237 236 245 249 236 246 253 261 277 288 307 303 292 283 275 275 275
10 47 54 77 302 281 287 1 36 336 329 34 28 338 323 350 265 123 66 49 31 6 209 206 213 217 222 227 233 235 237 237 235 229 236 253 249 256 273 283 281 285 296 295 294 288 287 285 280
59 60 61 146 274 302 311 6 18 51 336 350 38 352 22 23 29 350 353 9 12 352 243 232 227 226 229 233 236 239 241 237 237 238 224 237 262 271 289 311 299 285 291 307 301 293 289 288 284
99 78 165 172 260 331 303 351 71 20 322 2 350 354 16 37 359 316 310 298 340 356 313 263 247 237 234 235 239 243 243 242 243 234 231 247 265 275 277 284 310 319 309 310 302 295 294 294 286
86 94 116 244 192 234 339 23 94 63 313 333 338 334 334 335 332 326 330 291 292 320 303 274 263 249 241 239 239 241 243 243 243 241 242 252 266 274 276 279 300 311 320 311 306 300 297 294 283
67 60 165 222 156 221 349 18 83 321 274 307 309 342 325 319 301 318 307 305 282 285 296 285 270 262 256 247 243 244 244 243 242 245 249 254 262 271 274 281 291 296 306 312 307 297 289 282 276
87 108 219 213 197 251 329 329 326 333 322 292 319 323 319 299 281 273 276 278 275 275 272 272 273 270 265 260 251 246 245 245 243 242 247 251 260 272 280 279 279 283 294 303 304 295 290 275 267
139 182 207 262 240 284 309 306 233 225 288 300 336 330 336 339 271 260 284 304 309 303 274 253 250 256 263 262 259 255 249 244 241 242 244 251 258 265 263 267 274 281 285 290 292 291 280 269 265
74 246 212 282 235 315 289 304 299 234 270 320 316 60 59 64 60 48 11 340 330 317 313 279 256 250 247 256 258 259 257 253 253 247 248 249 253 259 261 265 274 279 284 288 284 287 278 270 265
177 265 254 268 277 279 273 256 266 280 310 85 120 140 41 37 22 357 340 326 320 312 300 292 277 258 247 240 246 254 259 264 261 259 247 253 259 262 266 267 272 276 287 294 291 284 280 272 265
289 291 291 291 277 266 237 280 215 84 79 73 93 35 4 353 354 345 325 325 323 314 303 298 294 277 252 237 232 244 258 272 283 280 259 252 262 266 270 264 272 279 287 296 298 286 282 278 273
328 334 321 270 282 197 169 250 224 350 13 51 26 12 352 358 359 359 344 335 333 331 332 327 308 296 268 234 222 232 249 265 285 305 296 277 272 276 279 263 265 279 287 295 296 291 285 286 286
43 55 347 312 3 19 151 259 263 30 2 9 12 13 14 12 7 1 5 7 1 350 344 350 348 333 295 216 212 221 238 251 265 272 277 271 266 266 267 267 276 281 285 292 292 295 287 288 295
7 230 207 314 21 145 90 267 289 345 359 83 69 61 52 37 25 21 29 36 35 27 25 27 31 33 62 126 156 178 194 211 242 258 267 268 260 266 271 282 284 279 283 287 284 300 292 289 294
199 214 241 239 356 26 337 274 341 19 70 89 83 77 70 63 55 54 56 57 56 55 56 57 63 69 79 92 107 116 133 180 235 312 296 282 282 283 278 275 275 276 273 280 283 278 281 286 291
136 173 213 261 200 218 242 260 1 54 83 89 91 89 85 79 77 78 79 77 78 80 78 78 81 79 82 84 83 83 75 72 34 343 330 310 306 298 293 295 297 304 300 286 296 285 280 288 300
157 171 246 278 283 184 306 280 67 48 65 108 117 109 105 101 96 92 89 88 83 79 77 74 73 73 73 71 67 65 58 60 48 33 356 336 333 328 322 309 310 308 307 298 300 295 306 298 299
202 185 193 215 336 335 332 290 189 68 112 116 123 124 119 109 101 96 92 88 86 80 75 71 68 66 65 66 67 66 64 65 68 68 13 359 336 313 303 296 293 300 310 311 312 312 311 307 300
214 206 162 169 128 228 30 283 288 185 154 147 146 143 128 115 104 99 94 90 83 78 73 66 61 64 67 69 70 70 68 67 70 62 51 41 22 4 348 328 313 305 302 290 288 292 300 301 298
216 117 143 127 116 67 293 245 258 116 221 215 185 158 144 137 124 112 99 91 85 81 71 59 54 61 64 57 56 57 62 69 73 69 61 52 45 42 37 27 14 353 342 335 324 312 305 297 293
144 81 46 45 92 291 226 178 269 186 213 168 185 178 163 153 137 122 115 108 99 88 76 70 64 61 56 51 60 60 68 74 68 61 46 38 31 26 26 23 18 16 11 8 3 351 335 322 310
113 106 326 340 357 231 107 164 243 166 176 192 182 182 175 166 152 137 129 123 105 91 79 65 56 54 50 45 51 55 52 46 36 27 21 16 11 10 11 8 3 1 358 353 351 349 346 345 340
179 165 162 216 205 260 315 232 271 306 301 219 190 177 176 175 169 158 146 138 121 103 86 61 53 50 46 41 41 48 44 29 17 12 8 5 3 2 359 357 354 352 347 344 341 337 334 333 328
187 185 155 103 55 30 233 274 260 82 47 149 167 176 183 181 184 179 172 164 147 113 91 69 48 40 53 51 48 37 26 18 10 5 360 357 354 351 348 346 343 342 340 336 333 328 325 322 319
139 157 84 4 202 261 271 272 239 221 203 173 177 194 194 189 191 195 194 197 202 205 222 227 356 30 61 48 28 11 1 356 354 349 344 345 342 339 337 336 337 337 334 329 326 323 320 316 313
137 175 68 123 144 183 278 248 208 212 177 187 203 203 201 200 202 204 208 220 220 229 235 232 217 219 199 325 332 341 342 344 341 337 336 336 336 332 331 332 331 330 328 325 323 320 317 313 310
169 183 157 162 216 254 195 257 24 252 177 186 204 208 208 211 213 218 226 230 231 231 232 225 217 211 225 276 303 317 322 323 325 325 328 329 327 327 327 327 326 324 323 321 319 316 314 311 310
Wind_Speed_850mb
8 6 6 2 7 10 2 2 2 3 3 1 3 5 4 4 7 5 13 1 5 10 27 35 34 31 28 26 25 24 22 18 13 9 7 7 7 7 6 8 11 14 8 3 5 7 6 7 5
6 5 2 4 9 8 8 7 4 3 2 4 5 4 4 1 1 6 9 5 5 8 21 31 34 31 27 25 24 24 19 17 14 12 11 10 10 10 9 9 12 14 12 5 1 3 3 3 2
6 6 1 9 7 7 7 7 5 5 3 4 3 2 3 2 4 6 7 6 5 2 13 27 32 32 30 27 21 18 20 18 16 16 15 14 14 13 8 7 5 18 17 12 4 2 2 2 4
7 3 9 9 4 3 5 5 4 5 3 5 5 4 3 1 2 4 8 10 6 0 6 19 31 33 32 28 24 22 20 20 22 20 19 16 12 12 14 17 22 27 22 15 8 7 7 8 10
7 5 8 7 4 6 6 7 2 4 4 3 4 4 5 6 3 1 5 10 9 3 6 11 25 33 35 33 28 25 23 23 21 16 20 19 17 17 17 22 28 30 28 15 10 10 11 11 12
6 6 9 3 5 7 6 12 3 2 5 4 3 4 3 13 7 6 3 5 9 5 4 10 16 28 34 36 34 31 28 27 27 20 24 20 20 18 18 15 21 29 21 15 12 11 12 12 13
10 8 7 6 4 5 5 15 6 2 7 4 8 6 4 16 10 9 10 9 6 7 5 8 13 22 31 37 39 37 35 33 31 24 27 25 26 22 19 17 17 18 18 17 12 12 13 12 10
6 10 6 4 3 3 7 7 6 6 4 5 3 3 7 26 27 9 9 10 11 9 8 11 16 21 27 34 39 40 38 37 35 28 29 30 31 28 23 19 19 19 20 17 15 14 13 11 10
4 9 3 7 11 4 4 10 2 13 9 5 6 8 22 22 13 15 12 12 15 17 18 20 21 22 26 32 37 40 40 39 37 36 35 35 36 35 29 24 23 22 21 19 18 17 15 13 14
9 7 13 6 6 3 9 3 14 6 14 8 15 17 22 19 19 15 15 16 18 21 22 24 28 27 26 29 34 38 40 40 40 40 39 37 37 38 36 30 29 27 25 24 23 21 18 18 17
6 8 7 4 12 6 9 13 2 2 9 11 15 29 21 7 8 10 14 19 20 17 19 26 29 31 32 32 32 33 35 38 40 39 38 40 41 40 39 36 33 30 30 28 26 24 22 23 23
1 8 8 5 3 5 6 14 14 10 9 21 18 8 15 12 12 10 9 11 11 13 17 19 26 29 33 34 33 32 32 36 38 37 41 43 40 37 38 39 37 36 34 35 32 28 26 27 28
4 5 7 14 19 21 20 18 15 40 23 9 6 1 9 12 12 12 14 16 19 20 21 23 25 31 32 34 32 28 27 27 32 40 39 43 40 38 39 40 39 38 39 41 34 32 30 29 31
4 8 21 24 23 16 9 6 6 16 11 11 5 5 9 12 15 14 15 18 22 20 19 21 26 30 35 35 33 29 25 22 21 23 36 43 42 40 39 42 37 40 42 42 40 36 33 33 34
5 10 12 11 8 8 11 4 12 3 9 15 12 12 16 19 15 12 18 24 25 26 28 22 16 19 22 33 34 31 26 21 16 12 13 19 27 31 26 36 40 38 41 42 44 40 38 36 38
6 7 7 5 3 2 8 15 8 17 26 16 10 9 8 13 20 23 20 17 19 21 24 28 24 15 5 17 26 21 18 15 12 12 14 19 22 28 30 32 34 36 38 40 42 40 39 35 38
10 6 8 15 6 2 5 13 4 35 24 14 12 11 12 13 15 18 19 20 22 23 23 23 22 16 10 15 18 17 15 13 15 18 17 17 21 21 23 24 27 34 38 37 34 36 38 38 40
12 8 8 11 3 8 6 19 11 33 17 21 19 19 22 24 29 26 24 23 22 25 29 31 32 31 31 26 22 20 11 6 2 6 12 17 18 19 21 20 24 25 26 28 41 33 38 38 40
9 9 9 6 6 5 12 13 8 16 27 24 23 27 32 35 35 36 36 35 34 31 31 35 36 37 27 23 21 19 12 10 6 10 16 17 20 20 20 19 20 21 20 25 22 28 29 27 33
6 6 10 9 3 7 8 13 7 14 9 15 23 29 32 36 40 46 51 54 57 59 62 61 59 50 43 34 30 24 20 15 10 12 11 15 18 18 18 22 27 28 29 33 33 35 31 32 32
9 12 9 12 4 1 10 11 9 6 18 19 20 26 29 35 39 42 48 54 57 61 63 63 62 59 54 51 44 34 27 20 13 7 6 10 11 14 19 24 27 28 28 33 38 42 42 39 37
9 14 10 7 6 7 5 9 7 8 8 11 22 25 28 28 36 39 44 48 51 54 52 52 50 47 44 38 35 29 30 26 26 19 16 12 10 10 11 12 15 17 19 25 30 31 36 45 47
10 9 11 6 7 6 4 2 12 8 7 10 19 25 28 30 36 39 37 39 41 40 37 36 37 37 36 33 29 27 28 30 26 22 18 19 20 18 18 17 15 13 15 17 18 17 19 24 30
17 11 12 9 6 1 10 12 8 8 7 9 24 31 31 32 34 35 35 31 29 28 26 25 28 32 30 27 24 23 23 24 19 20 19 20 22 22 24 25 27 28 28 28 27 27 26 25 25
7 11 3 6 3 10 1 4 15 10 6 17 36 47 38 35 34 31 29 24 21 19 19 20 23 25 24 22 20 21 21 20 21 22 23 21 23 26 29 30 29 30 31 32 32 32 31 32 34
11 12 11 13 7 6 5 11 11 4 8 20 52 54 44 40 33 27 23 18 13 13 12 13 14 17 17 17 17 18 19 23 24 24 25 28 30 31 31 33 34 34 35 36 36 37 37 35 35
8 7 5 12 3 3 8 10 3 3 3 20 45 54 52 45 39 31 22 14 8 5 5 6 7 10 10 11 13 15 18 18 21 22 24 27 29 31 34 36 39 40 42 45 46 47 48 47 45
8 12 7 5 3 10 8 9 10 10 14 11 23 47 51 46 41 33 23 13 8 5 4 1 1 2 4 6 8 11 14 17 21 24 27 31 34 36 40 41 43 45 48 51 54 58 58 61 59
5 5 8 8 7 9 5 10 11 13 20 26 39 57 53 48 44 37 27 19 15 12 10 9 8 6 2 1 6 11 16 21 25 28 32 35 37 38 41 45 50 55 61 67 71 71 73 74 75
4 13 14 9 11 5 2 13 5 6 28 45 51 57 49 46 43 39 34 28 22 20 19 19 17 12 7 8 11 15 19 24 28 33 37 41 42 44 49 54 61 66 71 75 79 81 82 87 89
Wind_Direction_850mb
322 324 320 309 59 67 337 279 259 324 18 93 103 113 152 162 152 204 345 347 18 164 186 185 187 186 189 190 194 198 204 207 212 221 230 229 228 234 244 288 317 332 333 17 67 79 87 98 119
355 6 360 95 84 66 280 264 230 222 86 104 117 83 71 320 329 351 356 344 15 151 187 193 191 194 197 205 208 210 218 216 224 231 232 235 239 243 253 290 312 315 343 288 346 87 93 98 143
24 10 19 93 105 152 190 232 239 319 72 64 96 89 107 40 5 23 21 18 9 130 188 201 200 201 204 212 208 206 210 224 238 247 251 243 236 233 242 249 257 299 329 318 273 278 276 278 275
360 347 57 78 112 228 213 323 258 341 51 43 43 49 318 301 7 42 59 57 34 92 182 201 208 210 213 223 219 223 224 232 237 236 245 249 236 246 253 261 277 288 307 303 292 283 275 275 275
10 47 54 77 302 281 287 1 36 336 329 34 28 338 323 350 265 123 66 49 31 6 209 206 213 217 222 227 233 235 237 237 235 229 236 253 249 256 273 283 281 285 296 295 294 288 287 285 280
59 60 61 146 274 302 311 6 18 51 336 350 38 352 22 23 29 350 353 9 12 352 243 232 227 226 229 233 236 239 241 237 237 238 224 237 262 271 289 311 299 285 291 307 301 293 289 288 284
99 78 165 172 260 331 303 351 71 20 322 2 350 354 16 37 359 316 310 298 340 356 313 263 247 237 234 235 239 243 243 242 243 234 231 247 265 275 277 284 310 319 309 310 302 295 294 294 286
86 94 116 244 192 234 339 23 94 63 313 333 338 334 334 335 332 326 330 291 292 320 303 274 263 249 241 239 239 241 243 243 243 241 242 252 266 274 276 279 300 311 320 311 306 300 297 294 283
67 60 165 222 156 221 349 18 83 321 274 307 309 342 325 319 301 318 307 305 282 285 296 285 270 262 256 247 243 244 244 243 242 245 249 254 262 271 274 281 291 296 306 312 307 297 289 282 276
87 108 219 213 197 251 329 329 326 333 322 292 319 323 319 299 281 273 276 278 275 275 272 272 273 270 265 260 251 246 245 245 243 242 247 251 260 272 280 279 279 283 294 303 304 295 290 275 267
139 182 207 262 240 284 309 306 233 225 288 300 336 330 336 339 271 260 284 304 309 303 274 253 250 256 263 262 259 255 249 244 241 242 244 251 258 265 263 267 274 281 285 290 292 291 280 269 265
74 246 212 282 235 315 289 304 299 234 270 320 316 60 59 64 60 48 11 340 330 317 313 279 256 250 247 256 258 259 257 253 253 247 248 249 253 259 261 265 274 279 284 288 284 287 278 270 265
177 265 254 268 277 279 273 256 266 280 310 85 120 140 41 37 22 357 340 326 320 312 300 292 277 258 247 240 246 254 259 264 261 259 247 253 259 262 266 267 272 276 287 294 291 284 280 272 265
289 291 291 291 277 266 237 280 215 84 79 73 93 35 4 353 354 345 325 325 323 314 303 298 294 277 252 237 232 244 258 272 283 280 259 252 262 266 270 264 272 279 287 296 298 286 282 278 273
328 334 321 270 282 197 169 250 224 350 13 51 26 12 352 358 359 359 344 335 333 331 332 327 308 296 268 234 222 232 249 265 285 305 296 277 272 276 279 263 265 279 287 295 296 291 285 286 286
43 55 347 312 3 19 151 259 263 30 2 9 12 13 14 12 7 1 5 7 1 350 344 350 348 333 295 216 212 221 238 251 265 272 277 271 266 266 267 267 276 281 285 292 292 295 287 288 295
7 230 207 314 21 145 90 267 289 345 359 83 69 61 52 37 25 21 29 36 35 27 25 27 31 33 62 126 156 178 194 211 242 258 267 268 260 266 271 282 284 279 283 287 284 300 292 289 294
199 214 241 239 356 26 337 274 341 19 70 89 83 77 70 63 55 54 56 57 56 55 56 57 63 69 79 92 107 116 133 180 235 312 296 282 282 283 278 275 275 276 273 280 283 278 281 286 291
136 173 213 261 200 218 242 260 1 54 83 89 91 89 85 79 77 78 79 77 78 80 78 78 81 79 82 84 83 83 75 72 34 343 330 310 306 298 293 295 297 304 300 286 296 285 280 288 300
157 171 246 278 283 184 306 280 67 48 65 108 117 109 105 101 96 92 89 88 83 79 77 74 73 73 73 71 67 65 58 60 48 33 356 336 333 328 322 309 310 308 307 298 300 295 306 298 299
202 185 193 215 336 335 332 290 189 68 112 116 123 124 119 109 101 96 92 88 86 80 75 71 68 66 65 66 67 66 64 65 68 68 13 359 336 313 303 296 293 300 310 311 312 312 311 307 300
214 206 162 169 128 228 30 283 288 185 154 147 146 143 128 115 104 99 94 90 83 78 73 66 61 64 67 69 70 70 68 67 70 62 51 41 22 4 348 328 313 305 302 290 288 292 300 301 298
216 117 143 127 116 67 293 245 258 116 221 215 185 158 144 137 124 112 99 91 85 81 71 59 54 61 64 57 56 57 62 69 73 69 61 52 45 42 37 27 14 353 342 335 324 312 305 297 293
144 81 46 45 92 291 226 178 269 186 213 168 185 178 163 153 137 122 115 108 99 88 76 70 64 61 56 51 60 60 68 74 68 61 46 38 31 26 26 23 18 16 11 8 3 351 335 322 310
113 106 326 340 357 231 107 164 243 166 176 192 182 182 175 166 152 137 129 123 105 91 79 65 56 54 50 45 51 55 52 46 36 27 21 16 11 10 11 8 3 1 358 353 351 349 346 345 340
179 165 162 216 205 260 315 232 271 306 301 219 190 177 176 175 169 158 146 138 121 103 86 61 53 50 46 41 41 48 44 29 17 12 8 5 3 2 359 357 354 352 347 344 341 337 334 333 328
187 185 155 103 55 30 233 274 260 82 47 149 167 176 183 181 184 179 172 164 147 113 91 69 48 40 53 51 48 37 26 18 10 5 360 357 354 351 348 346 343 342 340 336 333 328 325 322 319
139 157 84 4 202 261 271 272 239 221 203 173 177 194 194 189 191 195 194 197 202 205 222 227 356 30 61 48 28 11 1 356 354 349 344 345 342 339 337 336 337 337 334 329 326 323 320 316 313
137 175 68 123 144 183 278 248 208 212 177 187 203 203 201 200 202 204 208 220 220 229 235 232 217 219 199 325 332 341 342 344 341 337 336 336 336 332 331 332 331 330 328 325 323 320 317 313 310
169 183 157 162 216 254 195 257 24 252 177 186 204 208 208 211 213 218 226 230 231 231 232 225 217 211 225 276 303 317 322 323 325 325 328 329 327 327 327 327 326 324 323 321 319 316 314 311 310